International Skating Union - Official Site

ISU World Cup Heerenveen
December 9-11, 2016

Draw | Lap Times | Index | World Cup

Referee: Hanjo  HEIDEMAN  (NED)
Starter: Jyrki  JÄÄSKELÄINEN  (FIN)
StartTime: EndTime: Air Temp: Ice Temp: Humidity:
13:30 14:20 15.2℃ -7.8℃ 30%
Result 5000m Ladies Division A
Rankings as of Dec 11 2016 2:50PM
Rank: No.: Name: Nation: Time: Behind: Points:
1 231 Martina  Sáblíková CZE CZE 6:57.64200m - 20.92 - (20.9)
600m - 53.37 - (32.4)
1000m - 1:26.48 - (33.1)
1400m - 1:59.73 - (33.2)
1800m - 2:32.88 - (33.1)
2200m - 3:05.87 - (32.9)
2600m - 3:39.13 - (33.2)
3000m - 4:12.33 - (33.2)
3400m - 4:45.53 - (33.1)
3800m - 5:18.79 - (33.2)
4200m - 5:52.18 - (33.3)
4600m - 6:24.92 - (32.7)
5000m - 6:57.64 - (32.7)
100
2 242 Claudia  Pechstein GER GER 7:00.82200m - 20.81 - (20.8)
600m - 53.46 - (32.6)
1000m - 1:26.69 - (33.2)
1400m - 2:00.11 - (33.4)
1800m - 2:33.25 - (33.1)
2200m - 3:06.43 - (33.1)
2600m - 3:39.50 - (33.0)
3000m - 4:12.87 - (33.3)
3400m - 4:46.31 - (33.4)
3800m - 5:19.96 - (33.6)
4200m - 5:53.60 - (33.6)
4600m - 6:27.60 - (34.0)
5000m - 7:00.82 - (33.2)
3.18 80
3 281 Melissa  Wijfje NED NED 7:02.51200m - 20.00 - (20.0)
600m - 52.07 - (32.0)
1000m - 1:25.46 - (33.3)
1400m - 1:59.01 - (33.5)
1800m - 2:32.38 - (33.3)
2200m - 3:06.03 - (33.6)
2600m - 3:39.44 - (33.4)
3000m - 4:12.81 - (33.3)
3400m - 4:46.15 - (33.3)
3800m - 5:19.59 - (33.4)
4200m - 5:53.04 - (33.4)
4600m - 6:27.10 - (34.0)
5000m - 7:02.51 - (35.4)
4.87 70
4 276 Irene  Schouten NED NED 7:03.07200m - 20.96 - (20.9)
600m - 54.26 - (33.3)
1000m - 1:27.64 - (33.3)
1400m - 2:00.80 - (33.1)
1800m - 2:33.93 - (33.1)
2200m - 3:06.99 - (33.0)
2600m - 3:40.44 - (33.4)
3000m - 4:13.73 - (33.2)
3400m - 4:47.31 - (33.5)
3800m - 5:21.07 - (33.7)
4200m - 5:55.05 - (33.9)
4600m - 6:29.10 - (34.0)
5000m - 7:03.07 - (33.9)
5.43 60
5 307 Anna  Yurakova RUS RUS 7:06.93200m - 21.53 - (21.5)
600m - 54.38 - (32.8)
1000m - 1:28.22 - (33.8)
1400m - 2:01.85 - (33.6)
1800m - 2:35.10 - (33.2)
2200m - 3:08.47 - (33.3)
2600m - 3:42.10 - (33.6)
3000m - 4:15.79 - (33.6)
3400m - 4:49.72 - (33.9)
3800m - 5:23.74 - (34.0)
4200m - 5:57.95 - (34.2)
4600m - 6:32.49 - (34.5)
5000m - 7:06.93 - (34.4)
9.29 50
6 240 Bente  Kraus GER GER 7:07.44200m - 21.00 - (21.0)
600m - 53.21 - (32.2)
1000m - 1:26.53 - (33.3)
1400m - 2:00.12 - (33.5)
1800m - 2:33.87 - (33.7)
2200m - 3:07.67 - (33.7)
2600m - 3:41.89 - (34.2)
3000m - 4:16.03 - (34.1)
3400m - 4:50.42 - (34.3)
3800m - 5:24.68 - (34.2)
4200m - 5:58.77 - (34.0)
4600m - 6:33.22 - (34.4)
5000m - 7:07.44 - (34.2)
9.80 45
7 213 Isabelle  Weidemann CAN CAN 7:08.80200m - 21.58 - (21.5)
600m - 55.22 - (33.6)
1000m - 1:29.13 - (33.9)
1400m - 2:02.62 - (33.4)
1800m - 2:36.10 - (33.4)
2200m - 3:09.87 - (33.7)
2600m - 3:43.89 - (34.0)
3000m - 4:17.89 - (33.9)
3400m - 4:51.96 - (34.0)
3800m - 5:26.06 - (34.0)
4200m - 6:00.16 - (34.1)
4600m - 6:34.25 - (34.0)
5000m - 7:08.80 - (34.5)
11.16 40
8 306 Natalia  Voronina RUS RUS 7:09.03200m - 21.36 - (21.3)
600m - 55.05 - (33.6)
1000m - 1:28.85 - (33.7)
1400m - 2:02.73 - (33.8)
1800m - 2:36.31 - (33.5)
2200m - 3:10.18 - (33.8)
2600m - 3:44.10 - (33.9)
3000m - 4:18.09 - (33.9)
3400m - 4:52.00 - (33.9)
3800m - 5:25.92 - (33.9)
4200m - 6:00.26 - (34.3)
4600m - 6:34.87 - (34.6)
5000m - 7:09.03 - (34.1)
11.39 35
9 272 Linda  de Vries NED NED 7:09.39200m - 20.41 - (20.4)
600m - 53.96 - (33.5)
1000m - 1:27.44 - (33.4)
1400m - 2:01.17 - (33.7)
1800m - 2:34.03 - (32.8)
2200m - 3:07.46 - (33.4)
2600m - 3:41.01 - (33.5)
3000m - 4:15.13 - (34.1)
3400m - 4:49.30 - (34.1)
3800m - 5:23.61 - (34.3)
4200m - 5:58.22 - (34.6)
4600m - 6:33.33 - (35.1)
5000m - 7:09.39 - (36.0)
11.75 30
10 207 Ivanie  Blondin CAN CAN 7:09.55200m - 20.78 - (20.7)
600m - 53.10 - (32.3)
1000m - 1:26.68 - (33.5)
1400m - 1:59.76 - (33.0)
1800m - 2:33.17 - (33.4)
2200m - 3:06.48 - (33.3)
2600m - 3:40.05 - (33.5)
3000m - 4:13.76 - (33.7)
3400m - 4:48.03 - (34.2)
3800m - 5:22.41 - (34.3)
4200m - 5:57.64 - (35.2)
4600m - 6:33.20 - (35.5)
5000m - 7:09.55 - (36.3)
11.91 25
11 245 Francesca  Lollobrigida ITA ITA 7:15.62200m - 21.45 - (21.4)
600m - 54.90 - (33.4)
1000m - 1:29.11 - (34.2)
1400m - 2:02.60 - (33.4)
1800m - 2:36.86 - (34.2)
2200m - 3:10.88 - (34.0)
2600m - 3:45.11 - (34.2)
3000m - 4:19.62 - (34.5)
3400m - 4:54.30 - (34.6)
3800m - 5:29.31 - (35.0)
4200m - 6:04.80 - (35.4)
4600m - 6:40.06 - (35.2)
5000m - 7:15.62 - (35.5)
17.98 21
12 261 Bo-Reum  Kim KOR KOR 7:17.89200m - 21.31 - (21.3)
600m - 55.43 - (34.1)
1000m - 1:29.91 - (34.4)
1400m - 2:03.93 - (34.0)
1800m - 2:38.11 - (34.1)
2200m - 3:12.37 - (34.2)
2600m - 3:46.85 - (34.4)
3000m - 4:21.93 - (35.0)
3400m - 4:56.89 - (34.9)
3800m - 5:32.25 - (35.3)
4200m - 6:08.03 - (35.7)
4600m - 6:43.00 - (34.9)
5000m - 7:17.89 - (34.8)
20.25 18